Location: Allie Creek
(37.5926°N, 89.8526°W)
Time: 11:54:50
(UTC+00:00)

Meteor 2-20 - Pass Details

Date: 26 September 2023
Orbit: 938 x 959 km, 82.5° (Epoch: 28 November)

Event Time Altitude Azimuth Distance (km) Brightness Sun altitude
Rises 11:11:45 0° 352° (N) 3,648 7.5 -8.5°
Reaches altitude 10° 11:14:15 10° 352° (N) 2,698 6.8 -8.0°
Maximum altitude 11:20:27 86° 265° (W) 965 4.5 -6.8°
Drops below altitude 10° 11:26:35 10° 177° (S) 2,675 6.8 -5.6°
Sets 11:29:03 0° 176° (S) 3,614 7.5 -5.1°
